datetime,"minimum soil temperature, 4 in depth"
2016-12-28,31.74
2016-12-29,31.56
2016-12-30,31.45
2016-12-31,31.69
2017-01-01,31.63
2017-01-02,31.62
2017-01-03,31.62
2017-01-04,31.74
2017-01-05,31.85
2017-01-06,31.66
2017-01-07,31.58
2017-01-08,31.73
2017-01-09,31.9
2017-01-10,31.9
2017-01-11,31.96
2017-01-12,32.03
2017-01-13,32.09
2017-01-14,32.16
2017-01-15,32.15
2017-01-16,32.02
2017-01-17,31.9
2017-01-18,31.96
2017-01-19,32.02
2017-01-20,32.07
2017-01-21,32.09
2017-01-22,32.13
2017-01-23,32.14
2017-01-24,32.21
2017-01-25,32.21
2017-01-26,32.12
2017-01-27,32.21
2017-01-28,32.27
2017-01-29,32.32
2017-01-30,32.33
2017-01-31,32.37
2017-02-01,32.43
2017-02-02,32.48
2017-02-03,32.08
2017-02-04,35.5
2017-02-05,35.38
2017-02-06,36.29
2017-02-07,35.87
2017-02-08,37.54
2017-02-09,41.83
2017-02-10,38.62
2017-02-11,36.5
2017-02-12,36.02
2017-02-13,36.24
2017-02-14,36.28
2017-02-15,37.64
2017-02-16,38.81
2017-02-17,38.26
2017-02-18,38.01
2017-02-19,37.84
2017-02-20,38.56
2017-02-21,38.36
2017-02-22,37.35
2017-02-23,36.35
2017-02-24,35.6
2017-02-25,35.55
2017-02-26,34.72
2017-02-27,34.56
2017-02-28,34.9
2017-03-01,35.22
2017-03-02,35.59
2017-03-03,36.55
2017-03-04,37.9
2017-03-05,36.99
2017-03-06,35.44
2017-03-07,35.23
2017-03-08,37.49
2017-03-09,40.19
2017-03-10,41.98
2017-03-11,41.46
2017-03-12,41.6
2017-03-13,41.98
2017-03-14,43.8
2017-03-15,47.32
2017-03-16,44.39
2017-03-17,45.07
2017-03-18,47.2
2017-03-19,45.84
2017-03-20,46.36
2017-03-21,45.66
2017-03-22,43.81
2017-03-23,42.31
2017-03-24,43.99
2017-03-25,41.94
2017-03-26,43.21
2017-03-27,42.13
2017-03-28,42.41
2017-03-29,44.48
2017-03-30,44.13
2017-03-31,41.84
2017-04-01,43.38
2017-04-02,47.11
2017-04-03,45.97
2017-04-04,46.77
2017-04-05,48.15
2017-04-06,47.2
2017-04-07,45.22
2017-04-08,43.53
2017-04-09,42.69
2017-04-10,43.99
2017-04-11,45.22
2017-04-12,45.75
2017-04-13,44.13
2017-04-14,42.74
2017-04-15,42.31
2017-04-16,45.07
2017-04-17,43.62
2017-04-18,46.32
2017-04-19,45.71
2017-04-20,45.35
2017-04-21,44.26
2017-04-22,48.01
2017-04-23,48.15
2017-04-24,48.53
2017-04-25,46.07
2017-04-26,47.76
2017-04-27,45.12
2017-04-28,44.59
2017-04-29,46.06
2017-04-30,49.71
2017-05-01,49.37
2017-05-02,52.92
2017-05-03,53.75
2017-05-04,55.11
2017-05-05,57.23
2017-05-06,53.57
2017-05-07,50.09
2017-05-08,51.28
2017-05-09,53.44
2017-05-10,54.3
2017-05-11,56.27
2017-05-12,52.66
2017-05-13,49.05
2017-05-14,47.46
2017-05-15,50.41
2017-05-16,51.74
2017-05-17,47.03
2017-05-18,48.62
2017-05-19,51.39
2017-05-20,54.14
2017-05-21,54.84
2017-05-22,55.99
2017-05-23,57.04
2017-05-24,60.09
2017-05-25,56.71
2017-05-26,56.63
2017-05-27,56.56
2017-05-28,57.23
2017-05-29,59.22
2017-05-30,58.6
2017-05-31,58.91
2017-06-01,58.09
2017-06-02,57.49
2017-06-03,59.3
2017-06-04,60.06
2017-06-05,57.44
2017-06-06,58.97
2017-06-07,60.23
2017-06-08,58.54
2017-06-09,56.23
2017-06-10,53.74
2017-06-11,50.18
2017-06-12,49.47
2017-06-13,50.09
2017-06-14,52.04
2017-06-15,55.3
2017-06-16,55.8
2017-06-17,58.45
2017-06-18,59.69
2017-06-19,61.65
2017-06-20,63.29
2017-06-21,63.6
2017-06-22,62.63
2017-06-23,62.04
2017-06-24,62.29
2017-06-25,63.09
2017-06-26,62.67
2017-06-27,62.53
2017-06-28,62.46
2017-06-29,61.34
2017-06-30,61.55
2017-07-01,63.4
2017-07-02,62.95
2017-07-03,63.95
2017-07-04,64.63
2017-07-05,63.05
2017-07-06,63.3
2017-07-07,63.64
2017-07-08,63.71
2017-07-09,64.63
2017-07-10,65.51
2017-07-11,64.05
2017-07-12,65.79
2017-07-13,67.55
2017-07-14,61.77
2017-07-15,69.73
2017-07-16,68.28
2017-07-17,67.53
2017-07-18,67.6
2017-07-19,67.23
2017-07-20,67.69
2017-07-21,67.69
2017-07-22,68.12
2017-07-23,69.03
2017-07-24,69.41
2017-07-25,69.61
2017-07-26,67.69
2017-07-27,67.66
2017-07-28,68.22
2017-07-29,68.38
2017-07-30,68.7
2017-07-31,68.7
2017-08-01,69.0
2017-08-02,68.87
2017-08-03,69.16
2017-08-04,69.38
2017-08-05,67.92
2017-08-06,66.87
2017-08-07,66.58
2017-08-08,65.88
2017-08-09,66.34
2017-08-10,65.74
2017-08-11,65.51
2017-08-12,65.81
2017-08-13,65.0
2017-08-14,65.51
2017-08-15,64.36
2017-08-16,63.98
2017-08-17,64.15
2017-08-18,64.15
2017-08-19,63.85
2017-08-20,63.47
2017-08-21,63.71
2017-08-22,63.71
2017-08-23,65.07
2017-08-24,64.15
2017-08-25,63.89
2017-08-26,63.16
2017-08-27,62.88
2017-08-28,63.37
2017-08-29,63.19
2017-08-30,63.09
2017-08-31,62.19
2017-09-01,61.31
2017-09-02,61.83
2017-09-03,63.16
2017-09-04,64.09
2017-09-05,63.98
2017-09-06,65.57
2017-09-07,64.93
2017-09-08,63.16
2017-09-09,63.02
2017-09-10,62.74
2017-09-11,61.97
2017-09-12,63.13
2017-09-13,61.8
2017-09-14,61.91
2017-09-15,60.24
2017-09-16,58.65
2017-09-17,57.66
2017-09-18,58.92
2017-09-19,57.69
2017-09-20,57.76
2017-09-21,56.46
2017-09-22,54.81
2017-09-23,53.76
2017-09-24,53.28
2017-09-25,53.05
2017-09-26,53.88
2017-09-27,53.76
2017-09-28,38.87
2017-09-29,54.35
2017-09-30,55.61
2017-10-01,54.0
2017-10-02,52.45
2017-10-03,52.01
2017-10-04,50.93
2017-10-05,49.85
2017-10-06,43.78
2017-10-07,48.96
2017-10-08,28.97
2017-10-09,48.53
2017-10-10,48.16
2017-10-11,49.13
2017-10-12,29.16
2017-10-13,47.63
2017-10-14,46.95
2017-10-15,45.36
2017-10-16,44.95
2017-10-17,44.58
2017-10-18,44.46
2017-10-19,47.98
2017-10-20,28.17
2017-10-21,44.92
2017-10-22,45.64
2017-10-23,47.6
2017-10-24,46.32
2017-10-25,19.76
2017-10-26,42.99
2017-10-27,38.17
2017-10-28,21.78
2017-10-29,41.71
2017-10-30,46.59
2017-10-31,45.55
2017-11-01,32.26
2017-11-02,44.19
2017-11-03,44.92
2017-11-04,43.58
2017-11-05,42.99
2017-11-06,39.83
2017-11-07,40.71
2017-11-08,41.75
2017-11-09,43.58
2017-11-10,43.81
2017-11-11,42.55
2017-11-12,42.56
2017-11-13,43.53
2017-11-14,42.61
2017-11-15,42.09
2017-11-16,42.84
2017-11-17,40.57
2017-11-18,-29.97
2017-11-19,37.1
2017-11-20,38.4
2017-11-21,39.14
2017-11-22,40.15
2017-11-23,44.08
2017-11-24,45.68
2017-11-25,44.27
2017-11-26,44.8
2017-11-27,43.87
2017-11-28,41.71
2017-11-29,40.55
2017-11-30,38.97
2017-12-01,38.36
2017-12-02,38.1
2017-12-03,38.67
2017-12-04,37.01
2017-12-05,36.42
2017-12-06,34.55
2017-12-07,30.34
2017-12-08,32.94
2017-12-09,31.56
2017-12-10,29.08
2017-12-11,25.99
2017-12-12,9.79
2017-12-13,15.03
2017-12-14,-4.45
2017-12-15,31.34
2017-12-16,30.99
2017-12-17,32.14
2017-12-18,31.32
2017-12-19,32.03
2017-12-20,31.06
2017-12-21,27.44
2017-12-22,24.18
2017-12-23,5.25
2017-12-24,32.03
2017-12-25,25.7
2017-12-26,28.37
2017-12-27,28.17
2017-12-28,25.58
2017-12-29,11.21
2017-12-30,31.9
2017-12-31,28.72
2018-01-01,26.07
2018-01-02,31.79
2018-01-03,32.08
2018-01-04,32.14
2018-01-05,32.8
2018-01-06,32.87
2018-01-07,33.22
2018-01-08,33.38
2018-01-09,33.65
2018-01-10,34.42
2018-01-11,34.7
2018-01-12,35.06
2018-01-13,34.83
2018-01-14,34.73
2018-01-15,35.17
2018-01-16,36.23
2018-01-17,36.3
2018-01-18,38.0
2018-01-19,36.99
2018-01-20,36.05
2018-01-21,35.34
2018-01-22,35.29
2018-01-23,35.56
2018-01-24,35.81
2018-01-25,35.65
2018-01-26,35.28
2018-01-27,35.61
2018-01-28,36.13
2018-01-29,36.19
2018-01-30,36.6
2018-01-31,36.7
2018-02-01,37.28
2018-02-02,37.53
2018-02-03,37.94
2018-02-04,38.26
2018-02-05,38.7
2018-02-06,38.35
2018-02-07,37.43
2018-02-08,37.28
2018-02-09,37.58
2018-02-10,38.21
2018-02-11,36.36
2018-02-12,36.19
2018-02-13,35.15
2018-02-14,34.91
2018-02-15,34.75
2018-02-16,34.43
2018-02-17,34.48
2018-02-18,35.52
2018-02-19,34.88
2018-02-20,34.28
2018-02-21,34.1
2018-02-22,34.05
2018-02-23,33.94
2018-02-24,33.93
2018-02-25,33.93
2018-02-26,34.04
2018-02-27,33.94
2018-02-28,33.83
2018-03-01,33.83
2018-03-02,33.92
2018-03-03,33.7
2018-03-04,33.64
2018-03-05,33.47
2018-03-06,33.45
2018-03-07,33.44
2018-03-08,33.53
2018-03-09,34.86
2018-03-10,35.39
2018-03-11,35.75
2018-03-12,36.33
2018-03-13,39.1
2018-03-14,38.76
2018-03-15,37.29
2018-03-16,36.61
2018-03-17,36.3
2018-03-18,36.39
2018-03-19,36.76
2018-03-20,38.11
2018-03-21,38.71
2018-03-22,40.34
2018-03-23,38.46
2018-03-24,37.24
2018-03-25,36.44
2018-03-26,36.5
2018-03-27,37.38
2018-03-28,39.5
2018-03-29,41.07
2018-03-30,41.07
2018-03-31,42.87
2018-04-01,43.2
2018-04-02,43.94
2018-04-03,41.31
2018-04-04,43.43
2018-04-05,44.64
2018-04-06,43.86
2018-04-07,44.85
2018-04-08,43.85
2018-04-09,43.39
2018-04-10,46.1
2018-04-11,44.85
2018-04-12,43.12
2018-04-13,37.89
2018-04-14,43.26
2018-04-15,43.91
2018-04-16,13.42
2018-04-17,39.2
2018-04-18,41.22
2018-04-19,41.98
2018-04-20,40.8
2018-04-21,45.18
2018-04-22,46.54
2018-04-23,44.95
2018-04-24,41.27
2018-04-25,45.4
2018-04-26,2.9
2018-04-27,33.93
2018-04-28,-4.88
2018-04-29,46.34
2018-04-30,46.07
2018-05-01,43.97
2018-05-02,-38.14
2018-05-03,-48.71
2018-05-04,-6.82
2018-05-05,-34.44
2018-05-06,-23.48
2018-05-07,-16.32
2018-05-08,-7.24
2018-05-09,-28.11
2018-05-10,-47.23
2018-05-11,-46.76
2018-05-12,-43.19
2018-05-13,-49.22
2018-05-14,-47.24
2018-05-15,-49.74
2018-05-16,-41.95
2018-05-17,-46.76
2018-05-18,-43.18
2018-05-19,-39.61
2018-05-20,-49.23
2018-05-21,-49.75
2018-05-22,-28.37
2018-05-23,-49.75
2018-05-24,-40.36
2018-05-25,-49.23
2018-05-26,-49.76
2018-05-27,-44.05
2018-05-28,-47.24
2018-05-29,-35.75
2018-05-30,-27.08
2018-05-31,-48.21
2018-06-01,-47.73
2018-06-02,2.32
2018-06-03,-49.23
2018-06-04,-48.22
2018-06-05,-47.24
2018-06-06,-36.74
2018-06-07,-46.29
2018-06-08,-44.04
2018-06-09,-49.74
2018-06-10,-49.74
2018-06-11,6.67
2018-06-12,-30.83
2018-06-13,-22.37
2018-06-14,10.58
2018-06-15,-37.45
2018-06-16,-47.23
2018-06-17,47.92
2018-06-18,48.45
2018-06-19,-27.09
2018-06-20,-11.34
2018-06-21,55.62
2018-06-22,56.63
2018-06-23,56.1
2018-06-24,56.59
2018-06-25,57.79
2018-06-26,56.63
2018-06-27,56.82
2018-06-28,57.87
2018-06-29,56.97
2018-06-30,57.6
2018-07-01,58.2
2018-07-02,58.97
2018-07-03,57.99
2018-07-04,57.05
2018-07-05,56.79
2018-07-06,57.69
2018-07-07,56.04
2018-07-08,56.87
2018-07-09,57.58
2018-07-10,58.58
2018-07-11,59.23
2018-07-12,60.49
2018-07-13,61.24
2018-07-14,62.46
2018-07-15,62.71
2018-07-16,60.63
2018-07-17,62.01
2018-07-18,62.33
2018-07-19,62.43
2018-07-20,61.84
2018-07-21,62.3
2018-07-22,61.46
2018-07-23,62.12
2018-07-24,62.82
2018-07-25,62.96
2018-07-26,63.54
2018-07-27,63.1
2018-07-28,62.06
2018-07-29,61.85
2018-07-30,62.3
2018-07-31,62.54
2018-08-01,61.81
2018-08-02,61.92
2018-08-03,61.21
2018-08-04,60.4
2018-08-05,59.46
2018-08-06,60.03
2018-08-07,61.07
2018-08-08,61.67
2018-08-09,62.33
2018-08-10,62.58
2018-08-11,62.37
2018-08-12,61.28
2018-08-13,61.21
2018-08-14,61.18
2018-08-15,62.61
2018-08-16,61.46
2018-08-17,61.53
2018-08-18,60.96
2018-08-19,61.1
2018-08-20,60.71
2018-08-21,60.78
2018-08-22,59.67
2018-08-23,59.67
2018-08-24,59.82
2018-08-25,59.21
2018-08-26,58.66
2018-08-27,59.24
2018-08-28,58.25
2018-08-29,57.88
2018-08-30,58.95
2018-08-31,59.24
2018-09-01,58.29
2018-09-02,58.29
2018-09-03,58.8
2018-09-04,59.02
2018-09-05,58.8
2018-09-06,58.69
2018-09-07,58.69
2018-09-08,58.07
2018-09-09,57.22
2018-09-10,57.4
2018-09-11,57.47
2018-09-12,56.31
2018-09-13,56.12
2018-09-14,54.6
2018-09-15,54.6
2018-09-16,53.66
2018-09-17,53.06
2018-09-18,53.26
2018-09-19,54.39
2018-09-20,53.18
2018-09-21,52.59
2018-09-22,53.88
2018-09-23,55.28
2018-09-24,52.82
2018-09-25,52.1
2018-09-26,51.54
2018-09-27,51.85
2018-09-28,52.66
2018-09-29,53.96
2018-09-30,53.92
2018-10-01,52.63
2018-10-02,53.41
2018-10-03,53.68
2018-10-04,54.44
2018-10-05,51.12
2018-10-06,51.82
2018-10-07,50.88
2018-10-08,52.33
2018-10-09,52.57
2018-10-10,50.76
2018-10-11,49.05
2018-10-12,47.47
2018-10-13,47.21
2018-10-14,46.81
2018-10-15,44.64
2018-10-16,44.5
2018-10-17,45.31
2018-10-18,45.17
2018-10-19,45.35
2018-10-20,45.26
2018-10-21,44.96
2018-10-22,44.59
2018-10-23,44.77
2018-10-24,45.72
2018-10-25,44.55
2018-10-26,45.48
2018-10-27,46.42
2018-10-28,48.36
2018-10-29,46.9
2018-10-30,45.09
2018-10-31,44.36
2018-11-01,46.07
2018-11-02,45.72
2018-11-03,45.18
2018-11-04,44.32
2018-11-05,43.81
2018-11-06,42.51
2018-11-07,40.41
2018-11-08,39.47
2018-11-09,38.26
2018-11-10,37.75
2018-11-11,37.29
2018-11-12,36.61
2018-11-13,36.63
2018-11-14,36.72
2018-11-15,36.98
2018-11-16,36.82
2018-11-17,36.98
2018-11-18,36.88
2018-11-19,36.19
2018-11-20,35.45
2018-11-21,36.51
2018-11-22,38.11
2018-11-23,38.97
2018-11-24,40.06
2018-11-25,39.47
2018-11-26,39.02
2018-11-27,40.55
2018-11-28,40.01
2018-11-29,40.21
2018-11-30,40.5
2018-12-01,39.77
2018-12-02,38.54
2018-12-03,36.7
2018-12-04,36.19
2018-12-05,36.14
2018-12-06,35.58
2018-12-07,34.98
2018-12-08,34.86
2018-12-09,34.79
2018-12-10,34.91
2018-12-11,35.13
2018-12-12,35.29
2018-12-13,35.4
2018-12-14,35.34
2018-12-15,35.66
2018-12-16,36.67
2018-12-17,38.47
2018-12-18,38.66
2018-12-19,38.55
2018-12-20,37.53
2018-12-21,37.77
2018-12-22,36.2
2018-12-23,35.98
2018-12-24,36.04
2018-12-25,36.93
2018-12-26,35.78
2018-12-27,35.46
2018-12-28,35.03
2018-12-29,34.81
2018-12-30,34.75
2018-12-31,34.71
2019-01-01,34.28
2019-01-02,33.89
2019-01-03,33.71
2019-01-04,33.71
2019-01-05,33.76
2019-01-06,33.88
2019-01-07,34.05
2019-01-08,34.21
2019-01-09,35.77
2019-01-10,36.28
2019-01-11,36.14
2019-01-12,35.86
2019-01-13,35.09
2019-01-14,34.54
2019-01-15,34.48
2019-01-16,34.59
2019-01-17,35.61
2019-01-18,35.5
2019-01-19,35.56
2019-01-20,37.29
2019-01-21,37.2
2019-01-22,36.18
2019-01-23,35.76
2019-01-24,35.76
2019-01-25,35.5
2019-01-26,35.23
2019-01-27,35.22
2019-01-28,35.27
2019-01-29,35.71
2019-01-30,35.59
2019-01-31,35.28
2019-02-01,35.61
2019-02-02,36.98
2019-02-03,36.97
2019-02-04,36.58
2019-02-05,35.51
2019-02-06,35.15
2019-02-07,34.65
2019-02-08,34.43
2019-02-09,34.31
2019-02-10,34.16
2019-02-11,33.98
2019-02-12,33.87
2019-02-13,33.87
2019-02-14,33.65
2019-02-15,34.04
2019-02-16,34.42
2019-02-17,34.39
2019-02-18,34.1
2019-02-19,33.88
2019-02-20,33.87
2019-02-21,33.88
2019-02-22,33.65
2019-02-23,33.59
2019-02-24,33.6
2019-02-25,33.76
2019-02-26,34.59
2019-02-27,34.97
2019-02-28,35.18
2019-03-01,35.49
2019-03-02,35.61
2019-03-03,35.98
2019-03-04,35.81
2019-03-05,35.77
2019-03-06,36.3
2019-03-07,37.12
2019-03-08,36.56
2019-03-09,36.35
2019-03-10,36.4
2019-03-11,35.91
2019-03-12,35.87
2019-03-13,35.86
2019-03-14,35.91
2019-03-15,35.75
2019-03-16,35.96
2019-03-17,36.5
2019-03-18,37.07
2019-03-19,38.1
2019-03-20,40.24
2019-03-21,39.8
2019-03-22,39.9
2019-03-23,39.91
2019-03-24,38.96
2019-03-25,39.7
2019-03-26,39.42
2019-03-27,39.61
2019-03-28,39.07
2019-03-29,38.61
2019-03-30,38.36
2019-03-31,38.5
2019-04-01,40.79
2019-04-02,41.98
2019-04-03,42.59
2019-04-04,42.97
2019-04-05,42.45
2019-04-06,42.17
2019-04-07,43.01
2019-04-08,44.85
2019-04-09,43.45
2019-04-10,41.94
2019-04-11,42.46
2019-04-12,41.84
2019-04-13,42.36
2019-04-14,44.0
2019-04-15,43.07
2019-04-16,42.4
2019-04-17,43.62
2019-04-18,44.98
2019-04-19,46.36
2019-04-20,47.65
2019-04-21,46.1
2019-04-22,46.71
2019-04-23,48.35
2019-04-24,49.95
2019-04-25,50.53
2019-04-26,51.27
2019-04-27,50.41
2019-04-28,49.71
2019-04-29,48.28
2019-04-30,48.15
2019-05-01,46.33
2019-05-02,46.98
2019-05-03,47.37
2019-05-04,48.49
2019-05-05,49.79
2019-05-06,50.78
2019-05-07,51.4
2019-05-08,51.19
2019-05-09,52.25
2019-05-10,51.28
2019-05-11,51.23
2019-05-12,52.41
2019-05-13,52.92
2019-05-14,52.33
2019-05-15,51.08
2019-05-16,49.88
2019-05-17,49.01
2019-05-18,48.67
2019-05-19,47.78
2019-05-20,48.53
2019-05-21,48.36
2019-05-22,47.77
2019-05-23,48.79
2019-05-24,49.5
2019-05-25,49.71
2019-05-26,48.7
2019-05-27,49.67
2019-05-28,50.33
2019-05-29,51.64
2019-05-30,52.52
2019-05-31,53.4
2019-06-01,54.57
2019-06-02,55.0
2019-06-03,56.48
2019-06-04,56.82
2019-06-05,56.6
2019-06-06,56.47
2019-06-07,54.19
2019-06-08,52.65
2019-06-09,52.61
2019-06-10,53.71
2019-06-11,55.19
2019-06-12,56.79
2019-06-13,58.05
2019-06-14,58.17
2019-06-15,58.24
2019-06-16,58.46
2019-06-17,59.55
2019-06-18,59.48
2019-06-19,59.3
2019-06-20,58.32
2019-06-21,56.53
2019-06-22,56.98
2019-06-23,57.46
2019-06-24,57.46
2019-06-25,57.65
2019-06-26,56.49
2019-06-27,56.15
2019-06-28,55.39
2019-06-29,55.58
2019-06-30,56.49
2019-07-01,57.13
2019-07-02,56.9
2019-07-03,55.08
2019-07-04,54.74
2019-07-05,59.88
2019-07-06,60.35
2019-07-07,60.1
2019-07-08,60.24
2019-07-09,60.27
2019-07-10,60.92
2019-07-11,61.34
2019-07-12,62.22
2019-07-13,62.92
2019-07-14,63.16
2019-07-15,62.95
2019-07-16,62.88
2019-07-17,63.16
2019-07-18,63.34
2019-07-19,63.34
2019-07-20,63.71
2019-07-21,64.12
2019-07-22,64.63
2019-07-23,64.12
2019-07-24,63.85
2019-07-25,63.58
2019-07-26,64.6
2019-07-27,64.97
2019-07-28,64.64
2019-07-29,65.11
2019-07-30,64.94
2019-07-31,64.7
2019-08-01,64.7
2019-08-02,64.7
2019-08-03,64.6
2019-08-04,65.38
2019-08-05,65.55
2019-08-06,65.95
2019-08-07,64.53
2019-08-08,64.33
2019-08-09,64.13
2019-08-10,62.82
2019-08-11,61.53
2019-08-12,62.61
2019-08-13,63.16
2019-08-14,63.99
2019-08-15,65.01
2019-08-16,64.57
2019-08-17,63.85
2019-08-18,63.79
2019-08-19,63.78
2019-08-20,63.68
2019-08-21,64.06
2019-08-22,63.79
2019-08-23,63.03
2019-08-24,63.72
2019-08-25,63.95
2019-08-26,63.75
2019-08-27,63.1
2019-08-28,63.65
2019-08-29,64.12
2019-08-30,63.89
2019-08-31,63.96
2019-09-01,63.45
2019-09-02,63.34
2019-09-03,62.75
2019-09-04,62.13
2019-09-05,63.75
2019-09-06,62.82
2019-09-07,62.3
2019-09-08,61.67
2019-09-09,61.04
2019-09-10,60.89
2019-09-11,60.07
2019-09-12,59.2
2019-09-13,59.82
2019-09-14,59.89
2019-09-15,60.67
2019-09-16,59.78
2019-09-17,57.66
2019-09-18,58.65
2019-09-19,57.88
2019-09-20,57.69
2019-09-21,57.55
2019-09-22,57.47
2019-09-23,56.72
2019-09-24,57.13
2019-09-25,58.54
2019-09-26,57.95
2019-09-27,58.43
2019-09-28,56.67
2019-09-29,54.64
2019-09-30,53.62
2019-10-01,52.47
2019-10-02,51.3
2019-10-03,52.65
2019-10-04,52.39
2019-10-05,51.0
2019-10-06,50.71
2019-10-07,50.59
2019-10-08,51.85
2019-10-09,51.54
2019-10-10,49.05
2019-10-11,47.69
2019-10-12,47.52
2019-10-13,48.33
2019-10-14,48.53
2019-10-15,48.33
2019-10-16,48.25
2019-10-17,49.47
2019-10-18,49.22
2019-10-19,49.73
2019-10-20,48.33
2019-10-21,48.24
2019-10-22,48.59
2019-10-23,48.91
2019-10-24,48.28
2019-10-25,47.93
2019-10-26,49.22
2019-10-27,47.97
2019-10-28,45.05
2019-10-29,45.61
2019-10-30,42.99
2019-10-31,42.09
2019-11-01,42.23
2019-11-02,42.56
2019-11-03,42.65
2019-11-04,43.07
2019-11-05,43.31
2019-11-06,43.58
2019-11-07,43.07
2019-11-08,42.56
2019-11-09,42.65
2019-11-10,43.45
2019-11-11,44.23
2019-11-12,43.91
2019-11-13,42.98
2019-11-14,43.63
2019-11-15,44.64
2019-11-16,44.68
2019-11-17,43.86
2019-11-18,43.68
2019-11-19,44.77
2019-11-20,44.64
2019-11-21,42.75
2019-11-22,41.18
2019-11-23,40.4
2019-11-24,39.87
2019-11-25,40.89
2019-11-26,39.37
2019-11-27,39.27
2019-11-28,38.5
2019-11-29,37.71
2019-11-30,36.98
2019-12-01,36.98
2019-12-02,37.75
2019-12-03,39.32
2019-12-04,39.42
2019-12-05,40.02
2019-12-06,40.5
2019-12-07,41.27
2019-12-08,40.89
2019-12-09,40.51
2019-12-10,40.35
2019-12-11,40.06
2019-12-12,40.69
2019-12-13,41.56
2019-12-14,40.84
2019-12-15,40.6
2019-12-16,38.99
2019-12-17,37.86
2019-12-18,37.55
2019-12-19,37.75
2019-12-20,39.07
2019-12-21,39.75
2019-12-22,39.56
2019-12-23,38.99
2019-12-24,37.86
2019-12-25,37.71
2019-12-26,37.91
2019-12-27,37.15
2019-12-28,36.77
2019-12-29,36.78
2019-12-30,37.14
2019-12-31,37.5
2020-01-01,38.21
2020-01-02,38.82
2020-01-03,38.04
2020-01-04,38.67
2020-01-05,38.97
2020-01-06,38.31
2020-01-07,37.74
2020-01-08,37.86
2020-01-09,38.38
2020-01-10,37.85
2020-01-11,38.12
2020-01-12,37.85
2020-01-13,37.5
2020-01-14,37.36
2020-01-15,36.77
2020-01-16,36.72
2020-01-17,36.93
2020-01-18,37.04
2020-01-19,36.98
2020-01-20,36.98
2020-01-21,37.08
2020-01-22,37.19
2020-01-23,37.7
2020-01-24,38.76
2020-01-25,39.22
2020-01-26,40.31
2020-01-27,40.24
2020-01-28,40.64
2020-01-29,40.1
2020-01-30,40.79
2020-01-31,40.68
2020-02-01,40.39
2020-02-02,39.83
2020-02-03,38.38
2020-02-04,37.6
2020-02-05,37.49
2020-02-06,38.36
2020-02-07,38.9
2020-02-08,39.02
2020-02-09,38.21
2020-02-10,37.79
2020-02-11,37.64
2020-02-12,38.25
2020-02-13,37.94
2020-02-14,38.16
2020-02-15,38.66
2020-02-16,39.22
2020-02-17,38.91
2020-02-18,37.99
2020-02-19,37.38
2020-02-20,37.33
2020-02-21,37.79
2020-02-22,37.99
2020-02-23,38.5
2020-02-24,38.67
2020-02-25,38.55
2020-02-26,38.55
2020-02-27,38.8
2020-02-28,38.95
2020-02-29,39.53
2020-03-01,38.52
2020-03-02,38.25
2020-03-03,39.3
2020-03-04,39.9
2020-03-05,40.1
2020-03-06,41.12
2020-03-07,41.42
2020-03-08,40.89
2020-03-09,40.74
2020-03-10,40.44
2020-03-11,40.83
2020-03-12,41.45
2020-03-13,41.31
2020-03-14,41.7
2020-03-15,40.31
2020-03-16,39.52
2020-03-17,40.35
2020-03-18,39.52
2020-03-19,38.8
2020-03-20,39.25
2020-03-21,40.05
2020-03-22,40.88
2020-03-23,42.07
2020-03-24,41.85
2020-03-25,41.08
2020-03-26,40.25
2020-03-27,40.45
2020-03-28,41.5
2020-03-29,42.07
2020-03-30,42.45
2020-03-31,42.78
2020-04-01,42.13
2020-04-02,41.32
2020-04-03,41.65
2020-04-04,41.61
2020-04-05,41.56
2020-04-06,41.08
2020-04-07,41.69
2020-04-08,43.38
2020-04-09,44.57
2020-04-10,46.01
2020-04-11,47.24
2020-04-12,46.41
2020-04-13,46.67
2020-04-14,45.79
2020-04-15,47.15
2020-04-16,47.24
2020-04-17,45.88
2020-04-18,46.72
2020-04-19,47.37
2020-04-20,47.33
2020-04-21,48.32
2020-04-22,48.83
2020-04-23,49.08
2020-04-24,49.37
2020-04-25,49.63
2020-04-26,50.16
2020-04-27,51.16
2020-04-28,50.82
2020-04-29,52.29
2020-04-30,52.53
2020-05-01,51.16
2020-05-02,51.76
2020-05-03,50.51
2020-05-04,49.92
2020-05-05,50.79
2020-05-06,51.65
2020-05-07,50.87
2020-05-08,50.95
2020-05-09,52.08
2020-05-10,53.24
2020-05-11,53.07
2020-05-12,51.73
2020-05-13,51.13
2020-05-14,50.26
2020-05-15,50.13
2020-05-16,51.85
2020-05-17,51.2
2020-05-18,50.31
2020-05-19,50.17
2020-05-20,50.05
2020-05-21,50.5
2020-05-22,50.21
2020-05-23,50.67
2020-05-24,51.89
2020-05-25,53.71
2020-05-26,55.73
2020-05-27,56.71
2020-05-28,58.02
2020-05-29,59.23
2020-05-30,58.33
2020-05-31,57.13
2020-06-01,57.57
2020-06-02,57.24
2020-06-03,58.64
2020-06-04,59.19
2020-06-05,59.59
2020-06-06,58.6
2020-06-07,56.47
2020-06-08,55.01
2020-06-09,56.38
2020-06-10,57.54
2020-06-11,58.54
2020-06-12,58.65
2020-06-13,58.29
2020-06-14,57.88
2020-06-15,58.58
2020-06-16,55.78
2020-06-17,57.43
2020-06-18,58.68
2020-06-19,60.02
2020-06-20,61.98
2020-06-21,62.85
2020-06-22,63.16
2020-06-23,64.06
2020-06-24,65.21
2020-06-25,63.41
2020-06-26,64.74
2020-06-27,65.45
2020-06-28,63.48
2020-06-29,61.28
2020-06-30,61.78
2020-07-01,61.28
2020-07-02,60.37
2020-07-03,61.67
2020-07-04,62.23
2020-07-05,61.85
2020-07-06,62.27
2020-07-07,62.24
2020-07-08,61.5
2020-07-09,62.48
2020-07-10,63.03
2020-07-11,63.48
2020-07-12,64.1
2020-07-13,64.54
2020-07-14,64.1
2020-07-15,64.34
2020-07-16,64.81
2020-07-17,65.22
2020-07-18,65.22
2020-07-19,65.59
2020-07-20,65.89
2020-07-21,66.06
2020-07-22,66.59
2020-07-23,65.45
2020-07-24,64.58
2020-07-25,64.44
2020-07-26,64.41
2020-07-27,66.49
2020-07-28,64.17
2020-07-29,65.12
2020-07-30,64.34
2020-07-31,63.45
2020-08-01,64.35
2020-08-02,65.12
2020-08-03,65.22
2020-08-04,65.89
2020-08-05,66.89
2020-08-06,66.36
2020-08-07,64.56
2020-08-08,63.84
2020-08-09,65.26
2020-08-10,65.49
2020-08-11,65.99
2020-08-12,65.16
2020-08-13,64.65
2020-08-14,64.92
2020-08-15,65.72
2020-08-16,66.69
2020-08-17,65.96
2020-08-18,66.02
2020-08-19,66.03
2020-08-20,64.42
2020-08-21,64.29
2020-08-22,65.0
2020-08-23,64.49
2020-08-24,65.82
2020-08-25,64.35
2020-08-26,63.7
2020-08-27,64.18
2020-08-28,63.57
2020-08-29,63.67
2020-08-30,63.08
2020-08-31,62.7
2020-09-01,62.91
2020-09-02,63.1
2020-09-03,63.87
2020-09-04,64.08
2020-09-05,63.67
2020-09-06,63.43
2020-09-07,63.56
2020-09-08,63.01
2020-09-09,59.98
2020-09-10,59.62
2020-09-11,60.19
2020-09-12,59.98
2020-09-13,59.62
2020-09-14,60.19
2020-09-15,58.82
2020-09-16,58.41
2020-09-17,58.2
2020-09-18,60.48
2020-09-19,59.69
2020-09-20,57.64
2020-09-21,56.97
2020-09-22,58.38
2020-09-23,58.01
2020-09-24,59.43
2020-09-25,56.93
2020-09-26,58.92
2020-09-27,56.81
2020-09-28,55.75
2020-09-29,55.71
2020-09-30,56.09
2020-10-01,55.79
2020-10-02,55.98
2020-10-03,56.44
2020-10-04,56.17
2020-10-05,54.41
2020-10-06,53.94
2020-10-07,53.47
2020-10-08,52.76
2020-10-09,52.2
2020-10-10,55.52
2020-10-11,53.11
2020-10-12,53.23
2020-10-13,52.95
2020-10-14,54.6
2020-10-15,52.15
2020-10-16,50.94
2020-10-17,52.23
2020-10-18,52.59
2020-10-19,52.47
2020-10-20,51.82
2020-10-21,52.19
2020-10-22,51.11
2020-10-23,48.17
2020-10-24,50.31
2020-10-25,48.57
2020-10-26,44.57
2020-10-27,44.7
2020-10-28,44.75
2020-10-29,44.3
2020-10-30,44.38
2020-10-31,45.55
2020-11-01,45.01
2020-11-02,44.83
2020-11-03,44.61
2020-11-04,45.14
2020-11-05,45.41
2020-11-06,47.53
2020-11-07,45.81
2020-11-08,44.16
2020-11-09,43.04
2020-11-10,43.45